Location: Walnut Hills Mobile Home Park
(34.0445°N, 117.8184°W)
Time: 03:16:26
(UTC+00:00)

COSMOS 2428 - Pass Details

Date: 17 December 2025
Orbit: 845 x 854 km, 70.9° (Epoch: 15 January)

Event Time Altitude Azimuth Distance (km) Brightness Sun altitude
Exits shadow 13:48:01 - 343° (NNW) 3,361 5.5 -12.7°
Reaches altitude 10° 13:50:22 10° 346° (NNW) 2,480 4.8 -12.3°
Maximum altitude 13:56:01 62° 67° (ENE) 951 3.2 -11.2°
Drops below altitude 10° 14:01:38 10° 148° (SSE) 2,472 6.0 -10.1°
Sets 14:04:06 0° 152° (SSE) 3,405 6.7 -9.6°
